Location: Unspecified
(0.0000°N, 0.0000°E)
Time: 08:54:12
(UTC+00:00)

Vanguard 2 Rocket - Pass Details

Date: 24 January 2020
Orbit: 554 x 3326 km, 32.9° (Epoch: 28 September)

Event Time Altitude Azimuth Distance (km) Brightness Sun altitude
Rises 12:37:03 0° 306° (NW) 5,391 10.8 69.8°
Reaches altitude 10° 12:40:02 10° 307° (NW) 4,694 10.6 69.6°
Maximum altitude 12:54:48 89° 37° (NE) 2,987 11.1 68.1°
Drops below altitude 10° 13:15:32 10° 126° (SE) 6,260 11.3 65.2°
Sets 13:20:15 0° 126° (SE) 7,186 11.5 64.5°
